KO4IEJ-15 Weather Reports


time (UTC)temp
C
wind
direction
speed
KPH
gust
KPH
rain 1hr
cm
rain 24hr
cm
rain mn
cm
humidity
%
barometer
mb
20260502163028 29 91 3.2 30.6 0.00 0.00 0.00 70 1009.8
20260502161530 28 96 4.8 32.2 0.00 0.00 0.00 72 1009.8
20260502151537 26 20 16.1 35.4 0.00 0.00 0.00 73 1010.2
20260502123043 23 352 9.7 14.5 0.00 0.00 0.00 95 1009.8
20260502121536 22 337 8.0 12.9 0.00 0.00 0.00 95 1009.7
20260502114530 22 22 4.8 8.0 0.00 0.00 0.00 96 1009.6
20260502113035 21 10 4.8 8.0 0.00 0.00 0.00 97 1009.6
20260502111544 21 22 4.8 9.7 0.00 0.00 0.00 97 1009.4
20260502110032 21 23 4.8 8.0 0.00 0.00 0.00 97 1008.9
20260502104531 21 0 0.0 4.8 0.00 0.00 0.00 96 1008.7
20260502103029 21 0 0.0 1.6 0.00 0.00 0.00 96 1008.6
20260502101530 21 0 0.0 3.2 0.00 0.00 0.00 96 1008.8
20260502091529 21 0 0.0 0.0 0.00 0.00 0.00 94 1009.6
20260502071534 22 0 0.0 0.0 0.00 0.00 0.00 90 1009.7
20260502070037 22 0 0.0 0.0 0.00 0.00 0.00 90 1009.6
20260502064532 22 0 0.0 3.2 0.00 0.00 0.00 90 1009.9
20260502063030 22 0 0.0 1.6 0.00 0.00 0.00 89 1010.2
20260502061530 22 0 0.0 3.2 0.00 0.00 0.00 88 1010.0
20260502060031 22 0 0.0 0.0 0.00 0.00 0.00 87 1010.3
20260502054532 22 0 0.0 1.6 0.00 0.00 0.00 87 1010.3
20260502053047 22 0 0.0 0.0 0.00 0.00 0.00 88 1010.4
20260502051534 22 0 0.0 0.0 0.00 0.00 0.00 89 1010.5
20260502050032 23 0 0.0 0.0 0.00 0.00 0.00 91 1010.5
20260502044531 23 0 0.0 0.0 0.00 0.00 0.00 91 1010.4
20260502043040 23 0 0.0 0.0 0.00 0.00 0.00 90 1010.2
20260502041533 23 0 0.0 1.6 0.00 0.00 0.00 89 1010.3
20260502040034 24 0 0.0 0.0 0.00 0.00 0.00 88 1010.3
20260502034530 24 0 0.0 0.0 0.00 0.00 0.00 87 1010.5
20260502033029 24 0 0.0 0.0 0.00 0.00 0.00 86 1010.7
20260502031530 25 0 0.0 0.0 0.00 0.00 0.00 86 1010.5
20260502030030 25 0 0.0 3.2 0.00 0.00 0.00 86 1010.6
20260502024532 25 0 0.0 0.0 0.00 0.00 0.00 85 1010.5
20260502023034 25 0 0.0 6.4 0.00 0.00 0.00 84 1010.6
20260502021534 25 242 1.6 4.8 0.00 0.00 0.00 83 1010.5
20260502020030 26 216 3.2 8.0 0.00 0.00 0.00 83 1010.6
20260502014529 26 0 3.2 6.4 0.00 0.00 0.00 83 1010.5
20260502013033 26 231 1.6 6.4 0.00 0.00 0.00 82 1010.4
20260502011534 26 214 4.8 11.3 0.00 0.00 0.00 81 1010.3
20260502010033 26 207 4.8 9.7 0.00 0.00 0.00 80 1010.3
20260502004530 27 240 4.8 8.0 0.00 0.00 0.00 79 1010.2
20260502003031 27 251 4.8 11.3 0.00 0.00 0.00 78 1009.7
20260502001532 27 214 3.2 8.0 0.00 0.00 0.00 77 1009.3
20260502000029 27 221 6.4 11.3 0.00 0.00 0.00 76 1009.2
20260501234535 28 225 1.6 12.9 0.00 0.00 0.00 74 1009.0
20260501233032 30 288 6.4 14.5 0.00 0.00 0.00 68 1008.8
20260501231531 31 134 0.0 8.0 0.00 0.00 0.00 55 1008.5
20260501230032 31 0 0.0 12.9 0.00 0.00 0.00 53 1008.3
20260501224539 32 104 1.6 6.4 0.00 0.00 0.00 51 1008.2
20260501223030 32 0 1.6 6.4 0.00 0.00 0.00 51 1008.0
20260501221536 32 0 3.2 9.7 0.00 0.00 0.00 53 1007.9
20260501220033 32 84 3.2 8.0 0.00 0.00 0.00 50 1007.8
20260501214530 32 96 1.6 8.0 0.00 0.00 0.00 52 1008.0
20260501213035 31 146 1.6 8.0 0.00 0.00 0.00 52 1007.9
20260501211542 31 353 4.8 14.5 0.00 0.00 0.00 54 1007.9
20260501210032 32 0 0.0 0.0 0.00 0.00 0.00 53 1007.9
20260501204535 32 0 0.0 17.7 0.00 0.00 0.00 54 1008.3
20260501203035 32 339 3.2 12.9 0.00 0.00 0.00 54 1008.4
20260501201534 32 347 6.4 12.9 0.00 0.00 0.00 53 1008.3
20260501200034 32 104 3.2 9.7 0.00 0.00 0.00 51 1008.6
20260501194530 31 0 1.6 11.3 0.00 0.00 0.00 59 1008.9
20260501193042 31 337 11.3 20.9 0.00 0.00 0.00 54 1009.2
20260501191532 31 34 4.8 12.9 0.00 0.00 0.00 55 1009.5
20260501190032 31 268 1.6 9.7 0.00 0.00 0.00 55 1009.9
20260501184533 31 350 3.2 11.3 0.00 0.00 0.00 55 1010.1
20260501183032 31 353 3.2 14.5 0.00 0.00 0.00 56 1010.4
20260501181533 31 100 3.2 16.1 0.00 0.00 0.00 57 1010.6